Time,TemperatureF,DewpointF,PressureIn,WindDirection,WindDirectionDegrees,WindSpeedMPH,WindSpeedGustMPH,Humidity,HourlyPrecipIn,Conditions,Clouds,dailyrainin,SoftwareType,DateUTC
2013-03-23 00:08:00,34.6,23.0,30.05,SSW,193,1.0,3.0,64,0.00,,,0.00,weatherlink.com 1.10,2013-03-23 05:08:00,
2013-03-23 00:23:00,34.5,24.0,30.04,SSE,153,0.0,2.0,65,0.00,,,0.00,weatherlink.com 1.10,2013-03-23 05:23:00,
2013-03-23 00:38:00,34.5,24.0,30.04,SSE,162,1.0,3.0,65,0.00,,,0.00,weatherlink.com 1.10,2013-03-23 05:38:00,
2013-03-23 00:53:00,34.5,24.0,30.04,SE,136,2.0,3.0,65,0.00,,,0.00,weatherlink.com 1.10,2013-03-23 05:53:00,
2013-03-23 01:08:00,34.4,24.0,30.03,SSE,165,1.0,3.0,65,0.00,,,0.00,weatherlink.com 1.10,2013-03-23 06:08:00,
2013-03-23 01:23:00,34.3,24.0,30.03,ESE,121,0.0,3.0,65,0.00,,,0.00,weatherlink.com 1.10,2013-03-23 06:23:00,
2013-03-23 01:38:00,34.2,23.0,30.03,East,96,1.0,2.0,65,0.00,,,0.00,weatherlink.com 1.10,2013-03-23 06:38:00,
2013-03-23 01:53:00,34.1,23.0,30.03,SSE,160,0.0,2.0,65,0.00,,,0.00,weatherlink.com 1.10,2013-03-23 06:53:00,
2013-03-23 02:08:00,34.1,23.0,30.04,SSE,158,0.0,1.0,65,0.00,,,0.00,weatherlink.com 1.10,2013-03-23 07:08:00,
2013-03-23 02:23:00,34.2,23.0,30.04,SSE,158,0.0,1.0,65,0.00,,,0.00,weatherlink.com 1.10,2013-03-23 07:23:00,
2013-03-23 02:38:00,34.2,23.0,30.04,SSE,160,0.0,1.0,65,0.00,,,0.00,weatherlink.com 1.10,2013-03-23 07:38:00,
2013-03-23 02:53:00,34.1,23.0,30.04,SSE,159,0.0,1.0,65,0.00,,,0.00,weatherlink.com 1.10,2013-03-23 07:53:00,
2013-03-23 03:08:00,34.1,23.0,30.04,SSE,161,0.0,1.0,65,0.00,,,0.00,weatherlink.com 1.10,2013-03-23 08:08:00,
2013-03-23 03:23:00,34.2,23.0,30.03,South,176,0.0,2.0,65,0.00,,,0.00,weatherlink.com 1.10,2013-03-23 08:23:00,
2013-03-23 03:38:00,34.2,23.0,30.02,ESE,113,3.0,3.0,64,0.00,,,0.00,weatherlink.com 1.10,2013-03-23 08:38:00,
2013-03-23 03:54:00,34.2,23.0,30.02,ESE,104,0.0,5.0,64,0.00,,,0.00,weatherlink.com 1.10,2013-03-23 08:54:00,
2013-03-23 04:09:00,34.1,23.0,30.02,ESE,108,3.0,4.0,64,0.00,,,0.00,weatherlink.com 1.10,2013-03-23 09:09:00,
2013-03-23 04:24:00,34.1,23.0,30.02,ESE,118,5.0,6.0,64,0.00,,,0.00,weatherlink.com 1.10,2013-03-23 09:24:00,
2013-03-23 04:39:00,34.0,23.0,30.02,ESE,115,5.0,5.0,64,0.00,,,0.00,weatherlink.com 1.10,2013-03-23 09:39:00,
2013-03-23 04:54:00,34.1,23.0,30.02,ESE,111,5.0,6.0,63,0.00,,,0.00,weatherlink.com 1.10,2013-03-23 09:54:00,
2013-03-23 05:09:00,34.0,22.0,30.02,SE,141,3.0,6.0,63,0.00,,,0.00,weatherlink.com 1.10,2013-03-23 10:09:00,
2013-03-23 05:24:00,34.0,23.0,30.02,SW,232,2.0,5.0,64,0.00,,,0.00,weatherlink.com 1.10,2013-03-23 10:24:00,
2013-03-23 05:39:00,33.9,23.0,30.02,SE,136,1.0,5.0,65,0.00,,,0.00,weatherlink.com 1.10,2013-03-23 10:39:00,
2013-03-23 05:54:00,33.8,23.0,30.03,SSE,160,1.0,6.0,66,0.00,,,0.00,weatherlink.com 1.10,2013-03-23 10:54:00,
2013-03-23 06:09:00,33.8,23.0,30.04,SE,145,0.0,3.0,66,0.00,,,0.00,weatherlink.com 1.10,2013-03-23 11:09:00,
2013-03-23 06:24:00,33.7,23.0,30.04,East,101,0.0,3.0,66,0.00,,,0.00,weatherlink.com 1.10,2013-03-23 11:24:00,
2013-03-23 06:39:00,33.7,23.0,30.04,SSE,160,1.0,3.0,66,0.00,,,0.00,weatherlink.com 1.10,2013-03-23 11:39:00,
2013-03-23 06:54:00,33.7,23.0,30.05,SE,131,2.0,4.0,66,0.00,,,0.00,weatherlink.com 1.10,2013-03-23 11:54:00,
2013-03-23 07:09:00,33.7,23.0,30.05,SW,215,1.0,4.0,66,0.00,,,0.00,weatherlink.com 1.10,2013-03-23 12:09:00,
2013-03-23 07:24:00,33.7,24.0,30.05,ESE,103,1.0,5.0,67,0.00,,,0.00,weatherlink.com 1.10,2013-03-23 12:24:00,
2013-03-23 07:39:00,33.9,24.0,30.05,SE,126,1.0,6.0,67,0.00,,,0.00,weatherlink.com 1.10,2013-03-23 12:39:00,
2013-03-23 07:54:00,34.1,24.0,30.05,SE,142,2.0,7.0,66,0.00,,,0.00,weatherlink.com 1.10,2013-03-23 12:54:00,
2013-03-23 08:09:00,34.6,24.0,30.06,SW,225,0.0,5.0,66,0.00,,,0.00,weatherlink.com 1.10,2013-03-23 13:09:00,
2013-03-23 08:24:00,35.1,24.0,30.06,SSE,166,3.0,6.0,65,0.00,,,0.00,weatherlink.com 1.10,2013-03-23 13:24:00,
2013-03-23 08:39:00,35.7,24.0,30.07,SSW,198,1.0,5.0,63,0.00,,,0.00,weatherlink.com 1.10,2013-03-23 13:39:00,
2013-03-23 08:54:00,36.0,24.0,30.06,WSW,239,3.0,6.0,63,0.00,,,0.00,weatherlink.com 1.10,2013-03-23 13:54:00,
2013-03-23 09:09:00,36.5,25.0,30.06,West,278,0.0,7.0,63,0.00,,,0.00,weatherlink.com 1.10,2013-03-23 14:09:00,
2013-03-23 09:24:00,37.5,25.0,30.06,West,264,2.0,7.0,62,0.00,,,0.00,weatherlink.com 1.10,2013-03-23 14:24:00,
2013-03-23 09:39:00,38.5,25.0,30.05,East,82,6.0,11.0,58,0.00,,,0.00,weatherlink.com 1.10,2013-03-23 14:39:00,
2013-03-23 09:54:00,39.1,24.0,30.05,SSE,162,5.0,12.0,55,0.00,,,0.00,weatherlink.com 1.10,2013-03-23 14:54:00,
2013-03-23 10:09:00,39.1,23.0,30.04,South,188,8.0,12.0,52,0.00,,,0.00,weatherlink.com 1.10,2013-03-23 15:09:00,
2013-03-23 10:25:00,40.1,24.0,30.05,ESE,117,3.0,12.0,52,0.00,,,0.00,weatherlink.com 1.10,2013-03-23 15:25:00,
2013-03-23 10:39:00,40.6,24.0,30.05,NW,312,3.0,14.0,51,0.00,,,0.00,weatherlink.com 1.10,2013-03-23 15:39:00,
2013-03-23 10:54:00,41.0,24.0,30.05,NE,44,3.0,14.0,51,0.00,,,0.00,weatherlink.com 1.10,2013-03-23 15:54:00,
2013-03-23 11:10:00,41.7,23.0,30.05,East,91,2.0,12.0,48,0.00,,,0.00,weatherlink.com 1.10,2013-03-23 16:10:00,
2013-03-23 11:25:00,42.4,24.0,30.05,SSE,148,7.0,10.0,48,0.00,,,0.00,weatherlink.com 1.10,2013-03-23 16:25:00,
2013-03-23 11:40:00,43.6,24.0,30.05,West,270,3.0,9.0,46,0.00,,,0.00,weatherlink.com 1.10,2013-03-23 16:40:00,
2013-03-23 11:55:00,43.7,23.0,30.05,South,173,6.0,10.0,44,0.00,,,0.00,weatherlink.com 1.10,2013-03-23 16:55:00,
2013-03-23 12:10:00,43.8,23.0,30.05,ESE,118,4.0,10.0,44,0.00,,,0.00,weatherlink.com 1.10,2013-03-23 17:10:00,
2013-03-23 12:25:00,44.9,24.0,30.04,SSE,167,6.0,11.0,44,0.00,,,0.00,weatherlink.com 1.10,2013-03-23 17:25:00,
2013-03-23 12:40:00,45.5,24.0,30.04,SSE,155,5.0,12.0,43,0.00,,,0.00,weatherlink.com 1.10,2013-03-23 17:40:00,
2013-03-23 12:55:00,46.4,24.0,30.03,SW,217,6.0,11.0,41,0.00,,,0.00,weatherlink.com 1.10,2013-03-23 17:55:00,
2013-03-23 13:10:00,47.1,24.0,30.02,ESE,110,5.0,11.0,41,0.00,,,0.00,weatherlink.com 1.10,2013-03-23 18:10:00,
2013-03-23 13:25:00,48.3,25.0,30.01,WNW,287,1.0,11.0,41,0.00,,,0.00,weatherlink.com 1.10,2013-03-23 18:25:00,
2013-03-23 13:40:00,48.7,25.0,30.00,ENE,76,4.0,13.0,40,0.00,,,0.00,weatherlink.com 1.10,2013-03-23 18:40:00,
2013-03-23 13:55:00,49.6,27.0,29.99,WNW,291,6.0,16.0,42,0.00,,,0.00,weatherlink.com 1.10,2013-03-23 18:55:00,
2013-03-23 14:10:00,50.4,27.0,29.98,NW,307,4.0,13.0,41,0.00,,,0.00,weatherlink.com 1.10,2013-03-23 19:10:00,
2013-03-23 14:25:00,50.7,28.0,29.98,SE,132,3.0,13.0,42,0.00,,,0.00,weatherlink.com 1.10,2013-03-23 19:25:00,
2013-03-23 14:40:00,50.9,30.0,29.97,NNE,27,5.0,10.0,45,0.00,,,0.00,weatherlink.com 1.10,2013-03-23 19:40:00,
2013-03-23 14:55:00,51.1,30.0,29.96,WSW,257,2.0,9.0,45,0.00,,,0.00,weatherlink.com 1.10,2013-03-23 19:55:00,
2013-03-23 15:10:00,52.3,31.0,29.95,WNW,299,3.0,12.0,45,0.00,,,0.00,weatherlink.com 1.10,2013-03-23 20:10:00,
2013-03-23 15:25:00,51.2,30.0,29.94,SSW,193,3.0,10.0,45,0.00,,,0.00,weatherlink.com 1.10,2013-03-23 20:25:00,
2013-03-23 15:40:00,50.5,30.0,29.93,ESE,113,4.0,14.0,45,0.00,,,0.00,weatherlink.com 1.10,2013-03-23 20:40:00,
2013-03-23 15:55:00,50.2,30.0,29.91,SE,146,7.0,18.0,46,0.00,,,0.00,weatherlink.com 1.10,2013-03-23 20:55:00,
2013-03-23 16:10:00,50.2,30.0,29.91,ESE,104,6.0,14.0,46,0.00,,,0.00,weatherlink.com 1.10,2013-03-23 21:10:00,
2013-03-23 16:26:00,51.9,30.0,29.90,North,357,4.0,14.0,43,0.00,,,0.00,weatherlink.com 1.10,2013-03-23 21:26:00,
2013-03-23 16:40:00,51.4,30.0,29.90,NNE,29,4.0,16.0,44,0.00,,,0.00,weatherlink.com 1.10,2013-03-23 21:40:00,
2013-03-23 16:55:00,49.8,29.0,29.89,NNE,32,5.0,16.0,45,0.00,,,0.00,weatherlink.com 1.10,2013-03-23 21:55:00,
2013-03-23 17:11:00,50.1,29.0,29.88,ESE,108,11.0,16.0,45,0.00,,,0.00,weatherlink.com 1.10,2013-03-23 22:11:00,
2013-03-23 17:26:00,50.0,30.0,29.88,NNE,17,8.0,13.0,46,0.00,,,0.00,weatherlink.com 1.10,2013-03-23 22:26:00,
2013-03-23 17:41:00,49.2,29.0,29.87,South,181,3.0,19.0,46,0.00,,,0.00,weatherlink.com 1.10,2013-03-23 22:41:00,
2013-03-23 17:56:00,48.3,29.0,29.88,South,176,8.0,14.0,47,0.00,,,0.00,weatherlink.com 1.10,2013-03-23 22:56:00,
2013-03-23 18:11:00,48.1,29.0,29.89,ENE,73,4.0,15.0,47,0.00,,,0.00,weatherlink.com 1.10,2013-03-23 23:11:00,
2013-03-23 18:26:00,47.7,29.0,29.89,East,79,3.0,-999.0,48,-99.99,,,0.00,weatherlink.com 1.10,2013-03-23 23:26:00,
2013-03-23 18:41:00,47.6,29.0,29.89,NE,56,2.0,7.0,49,0.00,,,0.00,weatherlink.com 1.10,2013-03-23 23:41:00,
2013-03-23 18:56:00,47.3,30.0,29.88,SSE,164,5.0,9.0,51,0.00,,,0.00,weatherlink.com 1.10,2013-03-23 23:56:00,
2013-03-23 19:11:00,47.1,30.0,29.88,SSE,149,7.0,9.0,51,0.00,,,0.00,weatherlink.com 1.10,2013-03-24 00:11:00,
2013-03-23 19:26:00,46.9,29.0,29.87,South,180,4.0,12.0,51,0.00,,,0.00,weatherlink.com 1.10,2013-03-24 00:26:00,
2013-03-23 19:56:00,46.5,29.0,29.85,South,183,8.0,13.0,51,0.00,,,0.00,weatherlink.com 1.10,2013-03-24 00:56:00,
2013-03-23 20:11:00,46.5,29.0,29.84,SW,215,7.0,18.0,51,0.00,,,0.00,weatherlink.com 1.10,2013-03-24 01:11:00,
2013-03-23 21:26:00,44.0,32.0,29.86,West,270,3.0,18.0,64,0.00,,,0.00,weatherlink.com 1.10,2013-03-24 02:26:00,
2013-03-23 21:41:00,43.4,32.0,29.86,WSW,242,2.0,20.0,64,0.00,,,0.00,weatherlink.com 1.10,2013-03-24 02:41:00,
2013-03-23 21:56:00,43.5,31.0,29.86,SSE,155,3.0,12.0,61,0.00,,,0.00,weatherlink.com 1.10,2013-03-24 02:56:00,
2013-03-23 22:41:00,42.8,30.0,29.88,East,88,11.0,17.0,61,0.00,,,0.00,weatherlink.com 1.10,2013-03-24 03:41:00,
2013-03-23 22:56:00,42.5,30.0,29.87,SSW,198,5.0,13.0,61,0.00,,,0.00,weatherlink.com 1.10,2013-03-24 03:56:00,
2013-03-23 23:27:00,41.9,29.0,29.88,SW,228,4.0,11.0,60,0.00,,,0.00,weatherlink.com 1.10,2013-03-24 04:27:00,
2013-03-23 23:41:00,41.6,28.0,29.88,WSW,238,6.0,12.0,60,0.00,,,0.00,weatherlink.com 1.10,2013-03-24 04:41:00,
2013-03-23 23:56:00,40.9,29.0,29.88,SSE,166,6.0,21.0,63,0.00,,,0.00,weatherlink.com 1.10,2013-03-24 04:56:00,